Location: ?????
(31.8092°N, 35.2590°E)
Time: 18:27:36
(UTC+00:00)

Terra - Pass Details

Date: 20 June 2021
Orbit: 701 x 703 km, 98.2° (Epoch: 22 July)

Event Time Altitude Azimuth Distance (km) Brightness Sun altitude
Exits shadow 20:41:06 20° 288° (WNW) 1,603 3.9 -32.9°
Drops below altitude 10° 20:43:29 10° 315° (NW) 2,172 5.0 -33.1°
Sets 20:46:12 0° 331° (NNW) 3,094 6.2 -33.2°
